Theta_e
345 347 347 354 341 341 349 348 345 348 348 347 347 347 347 346 346 346 343 346 346 347 345 346 346 345 346 347 346 346 345 342 336 334 333 331 331 331 331 332 334 332 333 335 335 334 334 335 335
344 345 354 353 339 346 346 345 347 347 348 349 349 349 348 348 345 344 344 346 348 348 347 347 343 343 344 345 343 343 343 333 332 333 333 332 332 332 331 334 332 331 334 336 336 336 336 336 337
344 351 353 343 334 343 347 345 348 349 349 349 349 349 348 347 345 342 343 346 346 346 346 343 342 343 342 341 341 342 338 332 334 332 331 331 333 334 334 333 332 334 335 333 335 336 336 337 337
350 353 348 330 335 340 345 343 347 349 350 350 348 351 349 347 342 340 341 342 343 341 340 341 343 343 341 341 338 340 337 333 334 332 332 332 333 335 335 334 335 334 332 334 335 336 337 338 337
349 346 331 334 337 347 344 343 346 347 351 350 349 350 350 346 340 339 339 339 339 340 341 342 344 343 342 340 336 337 337 334 333 332 330 331 334 335 335 335 333 331 333 334 335 335 335 337 336
340 338 335 340 340 347 344 344 347 352 351 350 349 349 350 348 340 339 340 339 339 340 341 343 343 341 340 338 336 335 333 332 331 331 333 335 336 335 333 332 331 332 334 336 336 335 334 335 335
341 335 339 339 346 348 346 345 351 351 350 349 348 349 351 348 343 339 340 340 341 342 342 342 341 336 337 337 338 338 338 337 337 336 337 336 335 333 332 334 335 336 339 339 336 334 337 333 334
339 332 341 338 347 348 345 351 352 349 350 349 347 349 349 348 343 341 340 342 342 342 341 341 341 336 340 340 339 338 337 337 338 338 337 337 335 334 336 340 339 340 340 338 339 340 341 341 338
342 334 338 339 341 341 346 351 351 351 350 348 348 347 347 347 345 343 342 342 342 342 342 342 340 340 338 339 339 339 338 336 337 336 336 336 336 340 339 340 341 340 342 343 341 342 342 341 342
337 336 338 336 335 342 345 350 351 350 349 349 349 346 347 347 347 344 344 344 343 343 342 342 341 340 339 339 340 338 337 336 335 335 335 336 338 343 344 343 344 345 344 342 341 341 342 341 343
338 339 337 339 337 345 345 348 349 348 348 349 348 346 348 349 349 347 344 343 341 341 342 343 342 341 339 337 336 337 337 337 336 335 336 338 340 344 346 343 343 343 343 343 343 342 344 343 341
336 338 339 339 340 344 342 346 349 345 345 347 347 343 347 347 349 346 344 343 341 339 340 342 342 339 339 340 339 338 338 337 336 336 337 340 343 343 343 344 343 342 343 343 343 343 342 341 342
329 328 337 340 340 341 343 345 347 345 347 347 346 345 347 347 346 344 343 344 342 341 340 342 342 342 340 341 340 340 340 339 340 341 339 344 346 344 344 346 345 344 343 343 342 341 341 342 341
327 334 339 341 340 341 342 344 347 346 347 348 345 347 347 346 348 348 348 347 344 343 343 343 343 344 343 343 344 343 344 344 343 346 348 348 348 344 344 344 344 343 342 344 345 344 343 342 342
338 339 339 339 338 341 343 344 345 347 347 350 351 350 349 350 350 350 348 347 347 345 344 344 342 344 345 348 347 344 347 348 346 346 347 346 346 345 344 343 343 342 342 344 342 341 342 342 339
337 337 342 340 339 341 341 345 346 348 348 351 352 352 351 351 349 349 349 348 349 347 344 346 347 348 346 346 346 348 346 346 345 348 348 345 345 346 345 344 343 344 343 344 342 341 340 338 336
332 341 340 344 340 341 343 345 346 347 347 350 352 352 352 351 351 350 349 349 349 347 347 347 348 347 347 346 346 346 347 348 347 347 346 346 344 344 345 343 344 343 346 340 339 338 337 333 328
337 340 339 345 340 343 344 344 346 346 346 347 349 350 351 352 351 350 350 350 349 348 349 348 348 347 347 346 346 347 347 348 348 348 347 345 344 344 343 344 343 345 338 332 328 326 327 329 331
331 339 341 341 339 342 344 344 347 346 345 345 345 346 348 349 349 350 350 350 349 348 349 348 348 347 346 346 346 347 348 350 350 347 346 345 346 345 344 346 340 337 334 332 327 326 327 333 332
332 336 338 337 339 342 345 346 346 346 345 345 345 345 346 347 348 349 349 350 349 347 347 346 345 345 346 346 346 348 351 350 348 346 346 345 343 342 340 340 336 332 328 323 324 329 333 330 333
326 328 333 339 341 343 345 347 344 345 345 345 345 345 345 345 346 346 346 347 348 347 347 345 344 345 346 346 346 349 350 343 337 336 341 335 337 342 338 335 330 320 322 326 326 324 326 331 330
327 325 328 336 342 342 341 341 344 343 344 343 344 344 345 345 345 345 346 346 347 346 346 345 343 344 345 346 345 345 340 336 335 332 335 336 338 336 336 327 322 323 328 332 328 325 327 329 330
327 326 328 334 336 339 345 339 338 344 345 344 343 343 344 344 345 346 346 346 346 346 346 345 344 344 345 345 344 345 340 337 340 339 337 335 342 339 331 325 329 331 333 332 325 327 328 328 329
324 322 322 323 329 337 339 341 336 345 347 345 343 344 345 345 345 345 345 346 346 346 346 345 342 338 340 343 342 340 334 332 336 336 329 331 340 335 329 328 331 333 332 328 326 327 327 329 331
320 321 323 327 334 336 331 340 338 336 343 343 342 344 345 346 346 347 346 346 346 346 348 344 334 330 334 338 333 329 327 326 328 331 324 332 335 333 331 327 328 331 330 324 321 324 328 328 328
321 321 322 326 327 335 331 343 341 337 335 341 342 343 344 345 347 347 348 347 348 348 348 341 333 327 329 332 328 325 326 323 323 324 320 326 332 332 323 322 324 326 325 325 322 323 328 331 331
321 321 320 319 320 323 325 326 328 329 330 335 339 341 343 343 345 347 348 348 348 349 348 342 333 327 327 328 325 325 324 325 323 321 317 319 324 322 323 327 324 326 326 327 325 320 321 327 329
320 318 323 317 324 327 324 326 328 330 332 330 333 339 341 342 344 346 347 348 349 349 348 347 336 325 326 329 326 327 326 324 325 323 319 317 317 321 325 330 325 325 324 321 323 324 320 324 326
320 320 317 317 318 322 323 324 322 326 328 331 332 337 338 340 342 344 345 346 348 349 348 348 344 333 327 329 330 329 332 329 332 325 320 319 320 322 326 326 323 324 324 322 322 324 326 326 325
319 319 319 322 320 319 320 323 324 326 326 331 332 335 337 338 340 341 343 345 346 348 348 348 347 343 334 329 334 334 332 336 337 329 324 319 319 319 320 321 322 324 325 324 324 323 323 325 327
Wind_Speed
12 11 3 4 4 5 2 2 3 3 2 3 6 7 10 11 2 5 18 19 21 21 21 21 20 21 20 21 22 20 20 20 22 22 21 18 16 14 13 10 9 9 9 7 6 6 6 7 7
11 6 1 1 4 3 4 4 6 3 8 17 13 9 7 5 7 20 19 20 21 22 22 21 20 20 20 21 20 21 21 24 21 19 16 15 14 14 12 9 9 8 6 5 4 5 5 7 7
11 4 1 3 3 2 1 3 9 15 12 5 6 10 5 3 17 23 21 22 22 22 23 22 21 21 21 20 20 21 23 24 18 16 16 15 15 13 11 9 7 6 5 4 4 4 5 5 6
6 2 2 4 3 1 1 7 15 12 8 5 14 7 8 4 19 21 24 23 23 24 22 22 21 20 20 20 20 21 23 20 15 15 14 13 12 10 8 7 5 4 3 3 3 4 5 5 6
7 0 3 4 3 3 3 13 16 5 6 8 6 6 9 13 17 23 24 23 23 24 22 22 20 20 19 20 20 20 20 18 16 15 12 11 10 7 6 5 3 1 2 2 3 4 5 5 6
2 1 5 2 1 3 4 9 9 6 12 12 14 11 6 10 21 23 23 22 21 22 21 20 19 20 21 21 20 18 17 16 15 13 12 10 9 7 4 2 0 0 1 3 5 6 6 5 4
3 3 3 3 2 2 2 11 5 5 11 8 20 5 10 19 21 23 23 22 21 20 20 21 21 21 21 20 18 17 15 14 13 12 11 10 7 5 2 1 2 2 3 5 6 7 7 5 4
1 4 2 2 5 4 7 8 6 8 3 19 18 8 10 27 26 24 22 21 20 20 20 20 21 22 21 20 18 15 14 13 13 12 10 8 6 4 2 2 4 4 5 5 5 5 5 6 3
5 4 3 7 8 5 12 4 10 6 16 5 7 18 26 32 28 25 25 23 22 21 20 20 20 21 20 17 16 15 15 13 13 11 10 8 5 4 2 5 5 5 6 5 4 4 5 5 4
4 3 8 7 8 8 16 10 12 5 16 4 10 18 33 33 30 28 27 27 25 23 21 20 20 20 19 17 16 15 14 12 10 10 10 8 7 5 4 4 5 5 4 5 3 3 5 3 3
4 5 5 6 14 25 19 13 10 14 5 9 23 34 37 33 30 27 27 27 25 22 21 21 19 19 19 18 17 14 13 12 11 10 9 7 6 5 4 4 5 5 5 4 3 3 3 4 4
1 10 10 9 15 22 16 17 6 20 7 15 21 38 39 35 32 29 27 26 24 23 19 18 18 17 17 15 15 13 13 13 12 11 10 9 8 7 6 3 5 7 8 6 6 6 6 7 9
4 3 15 14 18 25 25 13 6 13 4 14 32 37 37 34 30 28 24 21 22 22 20 18 17 17 16 16 15 14 14 13 11 12 12 11 10 8 8 6 7 8 8 9 9 9 10 11 12
4 3 14 17 18 14 13 7 16 9 17 27 36 36 35 35 32 28 27 24 22 21 19 19 17 16 17 16 14 13 12 11 13 12 11 12 12 11 11 10 10 9 10 11 12 12 13 13 13
10 7 9 6 8 5 20 1 6 21 25 31 31 34 33 31 31 30 28 25 21 20 19 18 17 15 17 16 15 14 11 14 15 16 15 14 14 12 12 11 9 9 11 13 14 14 13 13 12
4 5 5 4 8 13 8 7 2 29 30 27 26 29 33 32 31 29 29 25 22 22 23 19 17 15 17 15 14 16 15 13 14 13 15 13 14 13 13 12 11 12 12 14 14 13 13 13 13
3 7 4 3 7 7 3 4 10 27 27 26 28 28 31 33 32 33 30 29 25 24 22 21 21 17 16 16 16 15 15 16 15 16 16 14 12 13 14 13 13 12 13 12 11 11 12 13 14
6 6 3 6 9 8 5 4 12 24 24 26 29 30 32 36 37 34 32 29 27 25 25 22 22 19 15 15 17 17 17 17 18 19 18 17 15 15 14 11 10 11 9 9 13 13 11 11 9
7 7 12 3 2 2 5 5 15 23 22 23 26 29 32 36 35 34 33 32 29 26 27 23 24 20 19 20 21 20 19 17 16 16 15 14 15 13 13 11 10 8 12 15 14 11 10 9 11
8 7 7 1 4 4 1 3 9 20 24 28 27 28 30 36 34 35 36 36 33 28 25 23 23 22 21 21 20 19 16 16 15 14 14 12 10 9 9 7 9 14 16 13 9 8 9 10 9
5 9 7 14 7 3 6 3 8 12 16 22 25 29 32 36 38 38 36 36 36 33 28 24 23 23 23 21 20 20 18 15 14 14 12 9 8 8 7 9 13 12 5 4 8 10 10 9 8
7 8 8 9 12 7 6 5 8 12 17 14 29 29 36 38 39 39 38 39 38 34 30 25 24 25 24 22 22 21 17 14 12 12 11 11 11 11 10 10 7 5 3 5 8 7 8 9 7
9 8 10 7 7 5 3 3 7 13 10 22 27 34 38 42 43 42 41 40 39 35 32 27 26 26 26 25 24 21 19 17 14 13 13 14 15 13 10 7 5 5 5 8 7 6 6 6 5
8 7 7 5 4 1 9 9 5 7 24 24 22 33 37 39 43 41 40 38 39 38 34 30 29 29 29 28 25 23 20 17 16 13 13 13 15 13 11 9 8 7 6 8 4 5 4 4 3
6 7 1 2 1 6 4 3 12 11 16 23 23 36 39 42 43 43 43 43 42 42 36 35 34 35 33 31 28 25 22 19 15 14 13 13 15 14 10 10 9 7 8 6 6 6 6 4 3
7 9 6 7 5 5 4 8 9 21 23 24 23 31 29 37 44 47 46 45 44 42 40 39 40 39 37 34 31 27 23 20 16 16 16 15 15 13 11 9 8 9 9 8 8 8 8 9 7
4 4 6 7 2 3 4 7 9 7 8 12 25 24 35 41 47 49 48 48 47 46 44 43 44 42 40 39 34 31 27 23 18 17 15 15 15 14 12 11 11 11 10 10 10 9 9 9 10
9 9 4 3 5 4 4 4 6 5 11 9 8 26 36 41 41 46 48 49 52 48 47 46 45 45 44 41 39 36 32 27 21 18 17 16 15 15 14 14 13 12 10 9 9 10 10 11 12
3 3 5 6 5 7 4 6 8 10 11 11 14 32 36 42 44 46 48 50 51 53 52 50 47 47 47 46 45 41 38 33 27 23 20 19 17 17 17 15 14 13 12 10 10 9 11 13 13
10 11 9 6 5 2 4 7 5 12 6 12 21 30 35 40 43 44 44 46 49 51 54 56 52 50 50 50 48 45 42 37 33 28 23 20 19 18 16 15 15 15 13 11 9 8 9 10 10
Wind_Direction
143 148 152 348 32 68 69 101 92 103 90 77 94 100 110 49 46 143 144 148 149 146 154 142 136 141 140 143 144 140 142 141 137 139 143 142 142 142 145 135 122 114 113 113 99 84 62 46 45
164 172 131 85 75 34 317 103 104 84 114 99 79 94 51 70 89 133 146 150 144 143 149 146 140 140 142 143 141 144 146 142 136 135 141 142 143 144 148 143 130 125 120 106 89 72 50 33 30
160 169 19 90 99 143 205 79 118 129 125 112 108 73 71 83 125 138 145 145 146 144 144 144 145 144 141 141 143 147 147 145 136 137 140 141 144 144 145 141 131 121 94 70 61 42 25 17 18
153 227 68 73 79 32 169 123 130 131 93 78 107 65 72 133 132 146 143 142 143 143 145 147 146 147 146 147 144 145 151 152 150 145 146 153 155 148 143 136 128 104 74 66 57 23 3 1 5
173 84 56 63 4 359 46 130 141 111 85 91 89 94 100 140 145 147 147 148 151 148 151 150 151 152 149 147 145 145 152 159 157 159 162 161 160 158 149 136 127 74 73 36 1 354 347 347 354
117 60 57 82 44 33 38 131 131 88 123 116 101 107 125 161 155 153 153 153 156 151 153 153 154 153 152 150 154 155 161 165 168 171 166 166 167 168 159 150 211 50 346 332 335 339 341 336 350
129 89 143 109 94 45 169 156 114 111 133 130 134 99 141 160 163 157 156 157 160 158 160 161 160 159 158 156 155 156 157 161 164 167 171 173 180 180 178 200 302 294 305 322 333 348 350 347 350
185 87 103 109 161 213 177 148 173 134 77 140 143 160 167 167 166 161 161 164 165 168 168 166 167 168 165 167 169 168 171 174 174 178 184 188 192 199 233 295 318 313 311 326 344 353 3 8 9
185 80 169 176 158 199 169 131 157 148 147 155 182 164 168 162 164 165 168 172 173 174 173 173 173 175 176 179 179 183 183 182 188 194 197 203 213 219 241 292 315 308 310 322 341 5 360 345 1
138 118 194 187 164 171 166 165 160 131 161 135 132 156 160 165 170 172 176 178 181 180 180 181 182 181 181 183 183 180 182 184 195 201 204 201 218 235 262 294 313 330 294 308 337 335 340 347 350
180 209 167 176 182 162 161 162 164 149 223 201 163 161 165 171 176 181 183 186 183 184 186 183 185 188 191 191 189 193 194 200 206 211 210 213 234 242 274 294 320 321 316 315 329 346 337 354 347
203 246 168 174 174 155 159 166 167 169 206 224 196 170 169 175 180 184 185 186 187 187 186 185 187 191 192 191 199 203 206 208 212 219 223 235 243 243 268 275 315 317 321 297 297 306 313 317 319
241 215 194 183 178 170 156 168 177 187 229 177 173 172 175 180 181 185 186 189 192 196 195 194 197 197 198 200 200 208 211 214 218 227 229 242 255 254 263 287 298 301 310 297 299 301 302 301 302
255 138 139 140 136 140 126 139 142 202 164 161 169 176 180 183 184 185 191 192 194 196 198 195 197 200 198 200 205 206 214 213 218 227 239 249 261 263 272 285 297 293 293 300 298 298 302 301 304
150 99 69 102 119 111 127 186 209 169 171 165 173 180 186 191 192 193 191 192 193 196 195 195 194 199 207 211 214 217 225 231 237 245 253 255 267 267 269 285 298 281 284 297 296 298 304 308 308
80 65 111 221 147 161 144 246 143 166 164 170 182 188 193 196 199 202 202 202 204 201 199 201 197 204 206 213 224 227 234 241 245 253 251 253 260 268 270 279 288 276 284 296 291 287 291 293 300
10 151 126 160 203 146 155 228 174 170 170 174 185 193 200 205 209 210 210 210 213 210 207 207 208 209 216 222 229 234 242 251 256 256 256 262 263 266 276 280 276 273 284 291 288 286 286 292 295
181 134 148 194 192 164 165 243 164 180 177 183 191 196 202 209 214 215 216 215 216 218 216 219 215 217 223 228 232 239 244 250 258 257 259 261 259 263 273 281 268 279 282 288 296 294 299 310 311
145 168 177 111 35 70 184 188 177 186 195 197 197 202 205 212 218 220 220 220 219 218 218 223 218 217 222 226 229 236 247 252 260 254 249 248 255 259 268 269 274 277 285 290 294 293 304 311 314
162 149 206 23 135 141 188 287 192 199 203 202 205 210 209 214 219 222 225 224 223 218 218 219 219 221 227 232 237 240 248 252 249 242 238 243 246 243 244 251 277 290 291 292 292 298 299 304 310
170 165 169 211 142 84 128 319 191 217 217 219 226 222 219 218 219 224 223 224 223 220 219 217 218 220 227 231 233 237 240 244 241 238 235 238 240 223 245 277 287 284 277 300 304 299 296 297 301
162 204 165 140 152 198 163 245 227 204 211 215 223 220 223 223 224 224 223 225 224 223 221 220 219 222 224 225 228 234 242 244 235 231 232 226 223 233 245 271 275 209 257 302 304 288 284 288 296
214 158 154 163 165 125 196 102 264 175 222 227 219 217 221 224 225 226 226 226 224 222 221 222 221 223 222 223 226 234 239 237 235 236 240 230 227 228 250 266 242 256 279 301 293 280 278 282 288
142 91 55 54 104 130 218 185 251 187 214 230 219 218 216 219 226 229 231 230 227 223 220 220 220 218 218 221 224 230 233 237 238 240 233 226 223 230 244 246 248 255 283 297 274 272 284 279 276
83 82 6 47 85 209 210 153 230 216 221 222 210 210 212 217 222 226 225 225 224 221 218 216 213 212 213 217 220 223 227 232 243 245 243 234 228 235 248 244 242 256 293 287 286 277 275 272 278
179 155 155 187 179 217 114 208 244 230 232 238 233 216 208 209 220 224 226 223 222 221 219 217 213 213 212 216 218 219 224 229 236 243 235 234 236 242 242 240 246 258 260 254 256 256 258 265 269
193 157 187 106 41 93 200 283 310 240 248 221 226 207 208 212 218 222 224 224 225 222 220 219 215 215 216 217 217 217 220 225 231 240 232 229 233 234 231 240 244 246 249 258 254 260 267 272 275
164 168 98 356 142 220 267 265 228 244 244 224 216 205 211 217 214 218 223 224 223 226 225 222 220 218 219 220 221 222 221 221 225 235 233 226 222 225 233 242 244 245 248 252 255 263 275 281 281
120 160 56 121 133 172 198 256 215 213 219 218 220 215 209 213 217 222 225 227 227 227 225 225 224 223 224 224 224 224 225 222 224 230 233 230 229 232 236 240 244 250 250 251 258 269 281 284 285
184 181 163 182 220 213 175 252 230 217 209 221 232 216 213 219 222 225 227 228 229 229 227 228 228 228 230 229 229 229 228 226 225 227 232 227 228 231 231 235 241 243 248 250 261 275 278 277 285